This is the latest recevied weather packets stored in our database for station/object EA6AMI-5. If no packets are shown the sender has not sent any weather packets the latest 10 day(s).
| Time | Temp. | Humidity | Pressure | Rain* | Wind** | Luminosity | Snow |
|---|---|---|---|---|---|---|---|
| 1787923623 | 29.44° C | 46% | 1018.3 hPa | 0 mm | - | 65 W/m² | - |
| 1787923083 | 30° C | 46% | 1018.3 hPa | 0 mm | - | 66 W/m² | - |
| 1787922543 | 30° C | 45% | 1017.8 hPa | 0 mm | - | 109 W/m² | - |
| 1787922003 | 30.56° C | 40% | 1017.7 hPa | 0 mm | - | 179 W/m² | - |
| 1787921643 | 30.56° C | 39% | 1017.7 hPa | 0 mm | - | 183 W/m² | - |
| 1787921103 | 30.56° C | 39% | 1017.3 hPa | 0 mm | - | 164 W/m² | - |
| 1787920563 | 30° C | 38% | 1017.5 hPa | 0 mm | - | 218 W/m² | - |
| 1787920023 | 30° C | 40% | 1017.8 hPa | 0 mm | - | 207 W/m² | - |
| 1787919483 | 30° C | 41% | 1018.1 hPa | 0 mm | - | 253 W/m² | - |
| 1787918943 | 30° C | 43% | 1018.5 hPa | 0 mm | - | 242 W/m² | - |
| 1787918403 | 30.56° C | 44% | 1018.9 hPa | 0 mm | - | 187 W/m² | - |
| 1787918043 | 30.56° C | 49% | 1018.6 hPa | 0 mm | - | 191 W/m² | - |
| 1787917504 | 30° C | 50% | 1018.3 hPa | 0 mm | - | 230 W/m² | - |
| 1787916964 | 30.56° C | 50% | 1018.1 hPa | 0 mm | - | 207 W/m² | - |
| 1787916423 | 30° C | 50% | 1017.9 hPa | 0 mm | - | 268 W/m² | - |
| 1787915883 | 30.56° C | 50% | 1017.8 hPa | 0 mm | - | 219 W/m² | - |
| 1787915344 | 30.56° C | 53% | 1018.2 hPa | 0 mm | - | 231 W/m² | - |
| 1787914803 | 30° C | 54% | 1018.5 hPa | 0 mm | - | 261 W/m² | - |
| 1787914443 | 30° C | 54% | 1018.4 hPa | 0 mm | - | 425 W/m² | - |
| 1787913903 | 29.44° C | 54% | 1018.5 hPa | 0 mm | - | 309 W/m² | - |
| 1787913363 | 28.89° C | 54% | 1018.6 hPa | 0 mm | - | 435 W/m² | - |
| 1787912823 | 29.44° C | 55% | 1018.2 hPa | 0 mm | - | 323 W/m² | - |
| 1787912284 | 28.89° C | 56% | 1018.1 hPa | 0 mm | - | 388 W/m² | - |
| 1787911743 | 29.44° C | 55% | 1018.3 hPa | 0 mm | - | 236 W/m² | - |
| 1787911204 | 29.44° C | 54% | 1018.2 hPa | 0 mm | - | 241 W/m² | - |
* Rain latest hour (hover to see other rain measurements)
** Current wind speed in m/s (hover to see current wind gust speed)